Location: Komo
(49.8333°N, 121.4167°W)
Time: 04:21:53
(UTC+00:00)

Envisat - Visible Passes

Search period start: 18 May 2022 00:00
Search period end: 28 May 2022 00:00
Orbit: 764 x 765 km, 98.2° (Epoch: 17 May)

Date Brightness Start Highest point End Pass type
(mag) Time Alt. Az. Time Alt. Az. Time Alt. Az.
18 May 5.7 11:29:45 10° NE 11:32:57 17° E 11:36:09 10° SE visible
21 May 5.8 11:18:39 10° ENE 11:21:03 13° E 11:23:27 10° ESE visible
24 May 6.1 11:08:20 10° ENE 11:09:07 10° E 11:09:54 10° E visible
